| time (UTC) | temp F | wind direction | speed knots | gust knots | rain 1hr in | rain 24hr in | rain mn in | humidity % | barometer mb |
| 20260906061552 | 55 | 31 | 0.0 | 0.0 | 0.00 | 0.05 | 0.00 | 97 | 1013.0 |
| 20260906060036 | 56 | 31 | 0.0 | 0.0 | 0.00 | 0.05 | 0.00 | 97 | 1013.1 |
| 20260906054604 | 56 | 31 | 0.0 | 0.0 | 0.00 | 0.05 | 0.00 | 96 | 1013.1 |
| 20260906053047 | 56 | 31 | 0.0 | 0.0 | 0.00 | 0.05 | 0.00 | 96 | 1013.1 |
| 20260906051527 | 56 | 31 | 0.0 | 0.0 | 0.00 | 0.05 | 0.00 | 97 | 1013.1 |
| 20260906050130 | 56 | 31 | 0.0 | 0.0 | 0.00 | 0.05 | 0.00 | 96 | 1013.1 |
| 20260906044544 | 56 | 31 | 0.0 | 0.0 | 0.03 | 0.05 | 0.00 | 96 | 1013.0 |
| 20260906043021 | 56 | 31 | 0.0 | 0.0 | 0.03 | 0.05 | 0.00 | 96 | 1013.1 |
| 20260906041506 | 57 | 33 | 0.0 | 0.0 | 0.04 | 0.05 | 0.00 | 96 | 1013.0 |
| 20260906040030 | 57 | 33 | 0.0 | 0.0 | 0.04 | 0.05 | 0.00 | 96 | 1012.9 |
| 20260906034542 | 57 | 31 | 0.0 | 0.0 | 0.01 | 0.02 | 0.02 | 96 | 1012.9 |
| 20260906033040 | 58 | 27 | 0.0 | 0.0 | 0.00 | 0.01 | 0.02 | 96 | 1012.6 |
| 20260906031549 | 58 | 107 | 0.0 | 0.0 | 0.00 | 0.01 | 0.01 | 96 | 1012.4 |
| 20260906030033 | 58 | 107 | 0.0 | 0.0 | 0.00 | 0.01 | 0.01 | 96 | 1012.3 |
| 20260906024535 | 57 | 107 | 0.0 | 0.0 | 0.00 | 0.01 | 0.01 | 96 | 1012.2 |
| 20260906023137 | 57 | 107 | 0.0 | 0.0 | 0.00 | 0.01 | 0.01 | 96 | 1012.3 |
| 20260906021604 | 57 | 107 | 0.0 | 0.0 | 0.00 | 0.01 | 0.01 | 96 | 1012.2 |
| 20260906020059 | 57 | 107 | 0.0 | 0.0 | 0.00 | 0.01 | 0.01 | 96 | 1012.2 |
| 20260906014552 | 57 | 107 | 0.0 | 0.0 | 0.00 | 0.01 | 0.01 | 95 | 1012.0 |
| 20260906013015 | 58 | 107 | 0.0 | 0.0 | 0.00 | 0.01 | 0.01 | 95 | 1011.9 |
| 20260906011559 | 58 | 107 | 0.0 | 0.0 | 0.00 | 0.01 | 0.01 | 95 | 1012.1 |
| 20260906010034 | 58 | 107 | 0.0 | 0.0 | 0.00 | 0.01 | 0.01 | 95 | 1012.1 |
| 20260906004508 | 59 | 107 | 0.0 | 0.0 | 0.00 | 0.01 | 0.01 | 95 | 1012.0 |
| 20260906003011 | 59 | 107 | 0.0 | 0.0 | 0.00 | 0.01 | 0.01 | 95 | 1011.8 |
| 20260906001619 | 60 | 107 | 0.0 | 0.0 | 0.00 | 0.01 | 0.01 | 95 | 1011.7 |
| 20260906000045 | 60 | 107 | 0.0 | 0.0 | 0.00 | 0.01 | 0.01 | 94 | 1011.6 |
| 20260905234532 | 61 | 107 | 0.0 | 0.0 | 0.00 | 0.01 | 0.01 | 94 | 1011.4 |
| 20260905233114 | 61 | 107 | 0.0 | 0.0 | 0.00 | 0.01 | 0.01 | 94 | 1011.3 |
| 20260905231555 | 62 | 107 | 0.0 | 0.0 | 0.00 | 0.01 | 0.01 | 93 | 1011.2 |
| 20260905230050 | 62 | 107 | 0.0 | 0.0 | 0.00 | 0.01 | 0.01 | 93 | 1011.0 |
| 20260905224600 | 63 | 107 | 0.0 | 0.0 | 0.00 | 0.01 | 0.01 | 93 | 1011.0 |
| 20260905223030 | 63 | 107 | 0.0 | 0.0 | 0.00 | 0.01 | 0.01 | 93 | 1010.9 |
| 20260905221539 | 63 | 107 | 0.0 | 0.0 | 0.00 | 0.01 | 0.01 | 93 | 1010.9 |
| 20260905220110 | 63 | 107 | 0.0 | 0.0 | 0.00 | 0.01 | 0.01 | 93 | 1010.8 |
| 20260905214539 | 63 | 107 | 0.0 | 0.0 | 0.00 | 0.01 | 0.01 | 92 | 1010.7 |
| 20260905213005 | 63 | 107 | 0.0 | 0.0 | 0.01 | 0.01 | 0.01 | 92 | 1010.5 |
| 20260905211550 | 63 | 107 | 0.0 | 0.0 | 0.01 | 0.01 | 0.01 | 91 | 1010.4 |
| 20260905210109 | 63 | 107 | 0.0 | 0.0 | 0.01 | 0.01 | 0.01 | 91 | 1010.3 |
| 20260905204548 | 64 | 107 | 0.0 | 0.0 | 0.01 | 0.01 | 0.01 | 86 | 1010.3 |
| 20260905203058 | 66 | 17 | 0.0 | 0.0 | 0.00 | 0.00 | 0.00 | 82 | 1010.2 |
| 20260905201540 | 64 | 304 | 0.0 | 0.0 | 0.00 | 0.00 | 0.00 | 85 | 1010.0 |
| 20260905200021 | 64 | 304 | 0.0 | 0.0 | 0.00 | 0.00 | 0.00 | 87 | 1010.0 |
| 20260905194612 | 65 | 304 | 0.0 | 0.0 | 0.00 | 0.00 | 0.00 | 84 | 1009.9 |
| 20260905193040 | 66 | 224 | 0.0 | 0.0 | 0.00 | 0.00 | 0.00 | 78 | 1010.0 |
| 20260905191513 | 67 | 223 | 0.0 | 0.0 | 0.00 | 0.00 | 0.00 | 77 | 1009.9 |
| 20260905190009 | 67 | 338 | 0.0 | 0.0 | 0.00 | 0.00 | 0.00 | 77 | 1009.8 |
| 20260905184536 | 67 | 338 | 0.0 | 0.0 | 0.00 | 0.00 | 0.00 | 75 | 1010.0 |
| 20260905183004 | 67 | 234 | 0.0 | 0.0 | 0.00 | 0.00 | 0.00 | 76 | 1009.9 |
| 20260905181543 | 67 | 234 | 0.0 | 0.0 | 0.00 | 0.00 | 0.00 | 74 | 1009.9 |
| 20260905180010 | 67 | 221 | 0.0 | 0.0 | 0.00 | 0.00 | 0.00 | 73 | 1009.9 |
| 20260905174601 | 67 | 185 | 0.0 | 0.0 | 0.00 | 0.00 | 0.00 | 75 | 1009.9 |
| 20260905173032 | 66 | 238 | 0.0 | 0.0 | 0.00 | 0.00 | 0.00 | 76 | 1009.9 |
| 20260905171607 | 66 | 215 | 0.0 | 0.0 | 0.00 | 0.00 | 0.00 | 75 | 1009.8 |
| 20260905170058 | 66 | 59 | 0.0 | 0.0 | 0.00 | 0.00 | 0.00 | 74 | 1009.8 |
| 20260905164525 | 66 | 138 | 0.0 | 0.0 | 0.00 | 0.00 | 0.00 | 75 | 1009.8 |
| 20260905163010 | 66 | 115 | 0.0 | 0.0 | 0.00 | 0.00 | 0.00 | 74 | 1009.9 |
| 20260905161554 | 67 | 204 | 0.0 | 0.0 | 0.00 | 0.00 | 0.00 | 72 | 1009.9 |
| 20260905160053 | 67 | 134 | 0.0 | 0.0 | 0.00 | 0.00 | 0.00 | 73 | 1009.9 |
| 20260905154550 | 66 | 215 | 0.0 | 0.0 | 0.00 | 0.00 | 0.00 | 76 | 1009.8 |
| 20260905153022 | 66 | 228 | 0.0 | 0.0 | 0.00 | 0.00 | 0.00 | 74 | 1010.0 |
| 20260905151551 | 66 | 35 | 0.0 | 0.0 | 0.00 | 0.00 | 0.00 | 78 | 1009.9 |
| 20260905150034 | 65 | 141 | 0.0 | 0.0 | 0.00 | 0.00 | 0.00 | 81 | 1010.1 |
| 20260905144554 | 65 | 38 | 0.0 | 0.0 | 0.00 | 0.00 | 0.00 | 78 | 1010.1 |
| 20260905143024 | 65 | 188 | 0.0 | 0.0 | 0.00 | 0.00 | 0.00 | 80 | 1010.0 |
| 20260905141511 | 64 | 142 | 0.0 | 0.0 | 0.00 | 0.00 | 0.00 | 81 | 1010.2 |
| 20260905134551 | 62 | 217 | 0.0 | 0.0 | 0.00 | 0.00 | 0.00 | 85 | 1010.3 |
| 20260905133010 | 62 | 190 | 0.0 | 0.0 | 0.00 | 0.00 | 0.00 | 85 | 1010.4 |
| 20260905131611 | 63 | 260 | 0.0 | 0.0 | 0.00 | 0.00 | 0.00 | 83 | 1010.4 |
| 20260905130046 | 63 | 9 | 0.0 | 0.0 | 0.00 | 0.00 | 0.00 | 83 | 1010.3 |
| 20260905124537 | 62 | 157 | 0.0 | 0.0 | 0.00 | 0.00 | 0.00 | 88 | 1010.2 |
| 20260905123009 | 60 | 235 | 0.0 | 0.0 | 0.00 | 0.00 | 0.00 | 92 | 1010.1 |
| 20260905121548 | 59 | 94 | 0.0 | 0.0 | 0.00 | 0.00 | 0.00 | 95 | 1010.0 |
| 20260905120045 | 56 | 94 | 0.0 | 0.0 | 0.00 | 0.00 | 0.00 | 97 | 1009.8 |
| 20260905114511 | 54 | 94 | 0.0 | 0.0 | 0.00 | 0.00 | 0.00 | 98 | 1009.7 |
| 20260905113054 | 52 | 93 | 0.0 | 0.0 | 0.00 | 0.00 | 0.00 | 98 | 1009.5 |
| 20260905111532 | 51 | 93 | 0.0 | 0.0 | 0.00 | 0.00 | 0.00 | 97 | 1009.5 |
| 20260905104549 | 50 | 93 | 0.0 | 0.0 | 0.00 | 0.00 | 0.00 | 97 | 1009.4 |
| 20260905103032 | 50 | 93 | 0.0 | 0.0 | 0.00 | 0.00 | 0.00 | 97 | 1009.2 |
| 20260905101612 | 50 | 93 | 0.0 | 0.0 | 0.00 | 0.00 | 0.00 | 97 | 1009.1 |
| 20260905100055 | 50 | 93 | 0.0 | 0.0 | 0.00 | 0.00 | 0.00 | 97 | 1009.1 |
| 20260905094606 | 50 | 93 | 0.0 | 0.0 | 0.00 | 0.00 | 0.00 | 97 | 1008.9 |
| 20260905093043 | 51 | 93 | 0.0 | 0.0 | 0.00 | 0.00 | 0.00 | 97 | 1009.0 |
| 20260905091526 | 51 | 94 | 0.0 | 0.0 | 0.00 | 0.00 | 0.00 | 97 | 1009.0 |
| 20260905090104 | 51 | 93 | 0.0 | 0.0 | 0.00 | 0.00 | 0.00 | 97 | 1009.0 |
| 20260905084611 | 52 | 93 | 0.0 | 0.0 | 0.00 | 0.00 | 0.00 | 97 | 1008.9 |
| 20260905083044 | 52 | 93 | 0.0 | 0.0 | 0.00 | 0.00 | 0.00 | 97 | 1008.9 |
| 20260905081527 | 52 | 93 | 0.0 | 0.0 | 0.00 | 0.00 | 0.00 | 97 | 1008.9 |
| 20260905080002 | 52 | 93 | 0.0 | 0.0 | 0.00 | 0.00 | 0.00 | 96 | 1008.8 |
| 20260905074554 | 52 | 93 | 0.0 | 0.0 | 0.00 | 0.00 | 0.00 | 96 | 1008.9 |
| 20260905073102 | 53 | 93 | 0.0 | 0.0 | 0.00 | 0.00 | 0.00 | 96 | 1009.1 |
| 20260905071559 | 53 | 93 | 0.0 | 0.0 | 0.00 | 0.00 | 0.00 | 96 | 1009.2 |
| 20260905070043 | 53 | 93 | 0.0 | 0.0 | 0.00 | 0.00 | 0.00 | 96 | 1009.2 |
| 20260905064530 | 54 | 93 | 0.0 | 0.0 | 0.00 | 0.00 | 0.00 | 96 | 1009.3 |
| 20260905063006 | 54 | 93 | 0.0 | 0.0 | 0.00 | 0.00 | 0.00 | 96 | 1009.1 |